Find Starlink 36570

NORAD ID: 67640 Int'l Des: 2026-020 Owner: SPXS Country: US Constellation: starlink operational
LEOCIRCULAR

Aktuelle Ansicht

3D-Globus wird geladen...

Über Starlink 36570

Beschreibung wird geladen...

Nächste Überflüge

Passes for default location (London). Set your location on the main map for personalized predictions.

Höhenverlauf

Loading altitude history...

Zweizeiliger Elementsatz

1 67640U 26020Z 26145.50324527 .00005076 00000-0 19374-3 0 9994
2 67640 43.0060 65.7687 0000929 354.1485 5.9356 15.27598544 17867
Epoch: 25. Mai 2026 • Age: 22 hours

Aktueller Status

Höhe 493.7 km
Geschwindigkeit 7.62 km/s
Subsatellitenpunkt -37.62°S, 25.16°W
Startdatum 30. Jan. 2026
Alter 0.3 years
Typ internet

Technische Details

Klassifizierung Payload
Masse 575.00 kg
Trockenmasse 530.00 kg
Gesamtmasse 575.00 kg
Länge 0.30 m
Durchmesser 4.10 m
Spannweite 29.00 m
Form Box + pan
Hersteller SPXS
Bus-Typ Starlink V2MO
Phasenstatus In Orbit
Besitzer/Staat SPXS/US

Most Searched